Showing default

GARAI-A, 62635

Orbit data source: Space-Track

GARAI-A, 62635 is a payload satellite owned by Satlantis (ES) in SSO that was launched on Tue, 14 Jan 2025 UTC via an FALCON 9 launch vehicle from the Air Force Western Test Range (AFWTR). Payload-class satellites include a variety of spacecraft equipped with specific instruments for various scientific and technological missions. These include communications satellites like Starlink; space stations such as the ISS; scientific satellites like the Hubble; Earth observation satellites from companies like Planet Labs, Umbra, and HawkEye 360; GPS; miniature CubeSats for education and research; and military/defense satellites.

Loading next visibility...
Identifier
62635, 2025-009AC
Orbit
SSO
Country
Flag of ESES / SPN
Related business
Manufacturer
OHB-SE
Mission
Operational Commercial Imaging
Bus & Motor
INNOSAT, Unknown motor
Mass
115 kg wet, 115 kg dry
Launch date (UTC)
2025-01-14 (1 year ago)
Launch vehicle
FALCON 9
Launch site
Air Force Western Test Range (AFWTR)
Object type
Payload
Rocket body
Debris
Shape & HBR
Box, 3.0 m
Radar Cross Section
1.305 m², Large (>1 m²)

Expand to show TLE details & history
Last TLE update: 12 hours ago

TLE from 12 hours ago
0 GARAI-A
1 62635U 25009AC  26074.49231415  .00008276  00000-0  37583-3 0  9998
2 62635  97.4045 156.0217 0001050 318.1984  41.9171 15.21031910 64540
Epoch: 2026-03-15T11:48Z
TLE epoch observation values (Epoch: 2026-03-15T11:48:55.942Z)
Latitude
-0.00006°
Longitude
165.69025°
Altitude
505.281 km
Speed
7.612 km/s
True Right ascension
10h 24m 05s
True Declination
0° 00' 00"
Sunlit
Object was in full shadow at epoch
Visualization orbit readout
Latitude
Unknown
Longitude
Unknown
Altitude
Unknown
Speed
Unknown
Apparent Right ascension
Unknown
Apparent Declination
Unknown
Sunlit
N/A
Visualization observer readout
Local Sidereal Time
03:56:11
Azimuth
Unknown
Elevation
Unknown
Doppler factor
Unknown
Orbital elements
Apogee altitude
500.413 km
Perigee altitude
498.969 km
Semi-major axis
6,877.828 km
Eccentricity
0.00011
Inclination
97.4045°
RAAN
156.0217°
Arg. of periapsis
318.1984°
True anomaly
41.92514°
Mean anomaly
41.9171°
Eccentric anomaly
41.92112°
Mean motion
3.8051 °/min
Orbital period
94.61 mins
BSTAR
0.00037583
Loading maneuver chart data...
Computing Atmospheric mass density...
Loading historical data...
Loading historical data...
Loading historical data...
Loading historical data...
Loading historical data...
Loading historical data...
Loading historical data...

Documentation

Showing up to 5 results
|